星链-2455 (STARLINK-2455 )

导读 | 星芒AI

STARLINK-2455 是 SpaceX Starlink 卫星互联网项目中的一颗低轨卫星,属于第二代 Starlink 卫星星座的一部分。该卫星旨在为全球用户提供高速、低延迟的宽带互联网服务,特别关注偏远和网络基础设施薄弱的地区。它采用先进通信技术,支持更高带宽和更广覆盖,助力实现全球互联网接入目标。

基本信息
目录编号:
48117
目录名称:
STARLINK-2455
国际标识:
2021-027AB
轨道中心:
EARTH
卫星名称:
星链-2455
卫星全名:
星链-2455 (STARLINK-2455 )
卫星状态:
在轨 (已飞行1716 天)
发射日期:
2021-04-07 UTC
国别 :
美国 (US)
星等 :
--
轨道信息
数据来源 国际轨道数据 AOE轨道数据
星历时间 2025-12-17T06:08:57+0800
1天前
查看轨道信息
2025-12-16T12:00:00+0800
1天前
查看轨道信息
半长轴 6925.35km 6925.347km
偏心率 0.0001392 0.000154
轨道倾角 53.054° 53.052°
近地点辐角 89.659° 79.462°
升交点赤经 163.161° 166.556°
平近点角 270.456° 137.434°
近地点 546.25km 546.145km
远地点 548.18km 548.279km
周期 95.592分钟 95.592分钟
每日圈数 15.063997 15.064006
详细信息
固有亮度:
5
最大亮度:
2.5
卫星平台:
Starlink V1.0
覆盖范围:
全球
运营商:
太空探索技术公司
运营商所在国:
美国
制造商(研发单位):
太空探索技术公司
制造商所在国:
美国
使用方式:
暂无
卫星简介
星链(Starlink)计划是由太空探索技术公司(SpaceX)提出的一个巨型低轨卫星互联网星座项目,计划在2019年至2024年间在太空搭建由约1.2万颗卫星组成的“星链”网络,其中1584颗将部署在地球上空550千米处的近地轨道,并从2020年开始工作。该卫星仍在工作。
2D轨道图
3D轨道图
轨道高度分析图
轨道倾角分析图
轨道综合分析图
查看轨道综合分析图